TimePDT,TemperatureF,Dew PointF,Humidity,Sea Level PressureIn,VisibilityMPH,Wind Direction,Wind SpeedMPH,Gust SpeedMPH,PrecipitationIn,Events,Conditions,WindDirDegrees,DateUTC
12:53 AM,50.0,37.9,63,29.99,10.0,North,-9999.0,-,N/A,,Scattered Clouds,0,2013-05-18 07:53:00
1:53 AM,51.1,37.9,61,29.99,10.0,Calm,Calm,-,N/A,,Scattered Clouds,0,2013-05-18 08:53:00
2:53 AM,46.0,37.9,73,30.00,10.0,Calm,Calm,-,N/A,,Clear,0,2013-05-18 09:53:00
3:53 AM,43.0,36.0,76,30.01,10.0,Calm,Calm,-,N/A,,Clear,0,2013-05-18 10:53:00
4:53 AM,41.0,35.1,79,30.01,10.0,WNW,3.5,-,N/A,,Clear,290,2013-05-18 11:53:00
5:53 AM,43.0,36.0,76,30.03,10.0,Calm,Calm,-,N/A,,Clear,0,2013-05-18 12:53:00
6:53 AM,46.9,37.9,71,30.04,10.0,West,3.5,-,N/A,,Scattered Clouds,270,2013-05-18 13:53:00
7:53 AM,55.9,39.9,55,30.04,10.0,Calm,Calm,-,N/A,,Clear,0,2013-05-18 14:53:00
8:53 AM,61.0,39.0,44,30.04,10.0,Calm,Calm,-,N/A,,Clear,0,2013-05-18 15:53:00
9:53 AM,63.0,37.9,40,30.03,10.0,Calm,Calm,-,N/A,,Scattered Clouds,0,2013-05-18 16:53:00
10:53 AM,64.9,36.0,34,30.03,10.0,SW,4.6,-,N/A,,Overcast,230,2013-05-18 17:53:00
11:53 AM,66.2,35.6,32,30.04,10.0,NE,3.5,-,N/A,,Mostly Cloudy,50,2013-05-18 18:53:00
12:53 PM,68.0,36.0,31,30.04,10.0,WNW,8.1,-,N/A,,Mostly Cloudy,290,2013-05-18 19:53:00
1:53 PM,68.0,36.0,31,30.04,10.0,WNW,9.2,17.3,N/A,,Overcast,300,2013-05-18 20:53:00
2:53 PM,68.0,37.9,33,30.05,10.0,NW,10.4,-,N/A,,Overcast,320,2013-05-18 21:53:00
3:53 PM,66.9,37.0,33,30.06,10.0,NW,12.7,-,N/A,,Mostly Cloudy,320,2013-05-18 22:53:00
4:53 PM,66.9,39.9,37,30.07,10.0,WNW,12.7,-,0.00,,Mostly Cloudy,300,2013-05-18 23:53:00
5:53 PM,69.1,39.0,33,30.07,10.0,WNW,12.7,21.9,N/A,,Scattered Clouds,290,2013-05-19 00:53:00
6:53 PM,66.0,39.0,37,30.08,10.0,NW,15.0,-,N/A,,Scattered Clouds,320,2013-05-19 01:53:00
7:53 PM,62.1,39.0,43,30.11,10.0,NW,13.8,-,N/A,,Partly Cloudy,310,2013-05-19 02:53:00
8:53 PM,59.0,37.0,44,30.13,10.0,NW,15.0,26.5,N/A,,Partly Cloudy,320,2013-05-19 03:53:00
9:53 PM,57.9,37.0,46,30.15,10.0,NW,11.5,-,N/A,,Clear,310,2013-05-19 04:53:00
10:53 PM,51.1,37.9,61,30.17,10.0,West,5.8,-,N/A,,Clear,260,2013-05-19 05:53:00
11:53 PM,48.0,37.0,66,30.18,10.0,NW,5.8,-,N/A,,Clear,310,2013-05-19 06:53:00